Macomb, IL

1:57 AM CDT on May 25, 2017 (GMT -0500)
Macomb Municipal

Weather History for KMQB - January, 2012

Change the Weather History Date:

Monday, January 23, 2012

  Actual Average (KBRL) Record (KBRL)
Temperature  
Mean Temperature 40 °F -  
Max Temperature 47 °F 40 °F 67 °F (1909)
Min Temperature 33 °F 23 °F -20 °F (1936)
Degree Days  
Heating Degree Days 25    
Moisture  
Dew Point 34 °F    
Average Humidity 88    
Maximum Humidity 100    
Minimum Humidity 74    
Precipitation  
Precipitation 0.00 in - - ()
Sea Level Pressure  
Sea Level Pressure 29.65 in    
Wind  
Wind Speed 18 mph (West)    
Max Wind Speed 30 mph    
Max Gust Speed 39 mph    
Visibility 8 miles    
Events Fog , Rain , Thunderstorm    
Averages and records for this station are not official NWS values.
T = Trace of Precipitation, MM = Missing Value Source: NWS Daily Summary

Daily Weather History Graph

Daily Weather History Graph

Search for Another Location

Airport or City:

Trip Planner

Search our weather history database for the weather conditions in past years. The results will help you decide how hot, cold, wet, or windy it might be!

Date:

Astronomy

Jan. 23, 2012 Rise Set
Actual Time 7:19 AM CST 5:09 PM CST
Civil Twilight 6:50 AM CST 5:38 PM CST
Nautical Twilight 6:17 AM CST 6:11 PM CST
Astronomical Twilight 5:44 AM CST 6:44 PM CST
Moon 7:15 AM CST (1/23) 5:57 PM CST (1/23)
Length of Visible Light 10h 48m
Length of Day
9h 49m
New Moon, 0% of the Moon is Illuminated
Jan 23
New Moon
Jan 30
First Quarter
Feb 7
Full
Feb 14
Last Quarter
Feb 21
New

Hourly Weather History & Observations

Time (CST) Temp. Windchill Dew Point Humidity Pressure Visibility Wind Dir Wind Speed Gust Speed Precip Events Conditions
12:15 AM 44.6 °F 39.2 °F 44.6 °F 100% 29.41 in 0.2 mi SSW 10.4 mph - N/A Fog Fog
12:35 AM 47.1 °F - 47.1 °F 100% 29.40 in 2.0 mi SSW 17.3 mph 21.9 mph N/A   Overcast
12:55 AM 46.9 °F - 46.9 °F 100% 29.36 in 7.0 mi West 19.6 mph - N/A Rain Light Rain
1:15 AM 44.8 °F 38.0 °F 44.8 °F 100% 29.38 in 10.0 mi South 15.0 mph - N/A Thunderstorm Overcast
1:35 AM 45.9 °F 40.8 °F 45.9 °F 100% 29.37 in 10.0 mi SSW 10.4 mph - N/A   Mostly Cloudy
1:55 AM 44.6 °F 40.2 °F 44.6 °F 100% 29.35 in 7.0 mi SSW 8.1 mph - N/A   Mostly Cloudy
2:35 AM 45.3 °F 43.0 °F 45.3 °F 100% 29.35 in 10.0 mi South 4.6 mph - N/A   Overcast
2:55 AM 41.5 °F 37.1 °F 41.5 °F 100% 29.37 in 3.0 mi South 6.9 mph - N/A   Mostly Cloudy
3:15 AM 42.8 °F 37.5 °F 42.8 °F 100% 29.37 in 3.0 mi South 9.2 mph - N/A   Mostly Cloudy
3:35 AM 44.1 °F 38.1 °F 44.1 °F 100% 29.38 in 7.0 mi SW 11.5 mph - N/A   Overcast
3:55 AM 45.5 °F 38.6 °F 45.5 °F 100% 29.40 in 7.0 mi WSW 16.1 mph 20.7 mph N/A   Overcast
4:15 AM 44.4 °F 34.5 °F 44.4 °F 100% 29.41 in 3.0 mi West 29.9 mph 34.5 mph N/A Rain Light Rain
4:35 AM 41.0 °F 30.5 °F 41.0 °F 100% 29.45 in 5.0 mi West 26.5 mph 32.2 mph N/A   Overcast
4:55 AM 39.4 °F 29.5 °F 39.4 °F 100% 29.46 in 10.0 mi West 20.7 mph 32.2 mph N/A   Overcast
5:15 AM 38.8 °F 27.3 °F 38.8 °F 100% 29.48 in 7.0 mi West 27.6 mph 33.4 mph N/A   Overcast
5:35 AM 36.7 °F 25.4 °F 36.7 °F 100% 29.50 in 10.0 mi West 23.0 mph 34.5 mph N/A   Overcast
5:55 AM 35.6 °F 24.2 °F 35.6 °F 100% 29.51 in 10.0 mi West 21.9 mph 29.9 mph N/A   Overcast
6:15 AM 36.1 °F 24.2 °F 36.1 °F 100% 29.53 in 10.0 mi West 25.3 mph 39.1 mph N/A   Overcast
6:35 AM 36.5 °F 25.2 °F 36.5 °F 100% 29.55 in 10.0 mi West 23.0 mph 31.1 mph N/A   Overcast
6:55 AM 35.6 °F 23.4 °F 35.6 °F 100% 29.57 in 10.0 mi West 25.3 mph 31.1 mph N/A   Overcast
7:15 AM 35.6 °F 23.7 °F 33.1 °F 91% 29.58 in 10.0 mi West 24.2 mph 32.2 mph N/A   Overcast
7:35 AM 35.1 °F 23.3 °F 32.2 °F 89% 29.59 in 10.0 mi West 23.0 mph 31.1 mph N/A   Overcast
7:55 AM 34.9 °F 23.0 °F 32.0 °F 89% 29.60 in 10.0 mi West 23.0 mph 31.1 mph N/A   Overcast
8:15 AM 34.9 °F 23.0 °F 31.8 °F 89% 29.62 in 10.0 mi West 23.0 mph 35.7 mph N/A   Overcast
8:35 AM 34.7 °F 22.5 °F 31.8 °F 89% 29.64 in 10.0 mi West 24.2 mph 34.5 mph N/A   Overcast
8:55 AM 34.7 °F 21.8 °F 30.9 °F 86% 29.65 in 10.0 mi West 27.6 mph 33.4 mph N/A   Overcast
9:15 AM 34.2 °F 21.3 °F 30.6 °F 87% 29.67 in 10.0 mi West 26.5 mph 32.2 mph N/A   Overcast
9:35 AM 33.8 °F 21.3 °F 30.2 °F 87% 29.69 in 10.0 mi West 24.2 mph 32.2 mph N/A   Overcast
9:55 AM 34.0 °F 21.0 °F 30.0 °F 85% 29.71 in 10.0 mi West 26.5 mph 31.1 mph N/A   Overcast
10:15 AM 34.0 °F 21.3 °F 29.3 °F 83% 29.72 in 7.0 mi West 25.3 mph 31.1 mph N/A   Overcast
10:35 AM 34.0 °F 21.0 °F 28.6 °F 81% 29.73 in 10.0 mi West 26.5 mph 35.7 mph N/A   Overcast
10:55 AM 34.2 °F 21.8 °F 28.9 °F 81% 29.74 in 7.0 mi West 24.2 mph 29.9 mph N/A   Overcast
11:15 AM 34.5 °F 22.8 °F 28.9 °F 80% 29.74 in 7.0 mi West 21.9 mph 31.1 mph N/A   Overcast
11:35 AM 34.3 °F 21.5 °F 28.6 °F 79% 29.74 in 7.0 mi West 26.5 mph 32.2 mph N/A   Overcast
11:55 AM 34.7 °F 22.0 °F 28.0 °F 77% 29.75 in 7.0 mi West 26.5 mph 35.7 mph N/A   Overcast
12:15 PM 34.2 °F 22.3 °F 28.2 °F 79% 29.75 in 7.0 mi West 21.9 mph 32.2 mph N/A   Overcast
12:35 PM 34.3 °F 21.5 °F 27.9 °F 77% 29.77 in 7.0 mi West 26.5 mph 29.9 mph N/A   Overcast
12:55 PM 33.8 °F 22.5 °F 28.4 °F 81% 29.77 in 7.0 mi West 19.6 mph 32.2 mph N/A   Overcast
1:15 PM 33.8 °F 21.9 °F 28.4 °F 81% 29.78 in 7.0 mi West 21.9 mph - N/A   Overcast
1:35 PM 35.6 °F 23.0 °F 28.4 °F 75% 29.78 in 7.0 mi West 27.6 mph 32.2 mph N/A   Overcast
1:55 PM 34.7 °F 23.1 °F 27.9 °F 76% 29.80 in 7.0 mi West 21.9 mph 31.1 mph N/A   Overcast
2:15 PM 34.7 °F 24.0 °F 28.0 °F 77% 29.82 in 10.0 mi West 18.4 mph - N/A   Overcast
2:35 PM 34.3 °F 22.9 °F 27.1 °F 75% 29.83 in 10.0 mi West 20.7 mph 31.1 mph N/A   Overcast
2:55 PM 34.5 °F 22.8 °F 27.3 °F 75% 29.84 in 10.0 mi West 21.9 mph 26.5 mph N/A   Overcast
3:15 PM 34.7 °F 23.7 °F 27.5 °F 75% 29.85 in 10.0 mi West 19.6 mph 28.8 mph N/A   Overcast
3:35 PM 34.7 °F 23.1 °F 27.5 °F 75% 29.86 in 7.0 mi West 21.9 mph 25.3 mph N/A   Overcast
3:55 PM 34.7 °F 23.4 °F 27.3 °F 74% 29.88 in 10.0 mi West 20.7 mph 25.3 mph N/A   Overcast
4:15 PM 34.3 °F 22.9 °F 27.5 °F 76% 29.89 in 7.0 mi West 20.7 mph - N/A   Overcast
4:35 PM 34.0 °F 21.8 °F 26.6 °F 74% 29.90 in 7.0 mi West 23.0 mph 27.6 mph N/A   Overcast
4:55 PM 33.8 °F 22.5 °F 26.4 °F 74% 29.92 in 10.0 mi West 19.6 mph 25.3 mph N/A   Overcast
5:15 PM 33.8 °F 23.9 °F 26.8 °F 75% 29.93 in 7.0 mi West 15.0 mph - N/A   Overcast
5:35 PM 33.4 °F 23.1 °F 27.0 °F 77% 29.94 in 10.0 mi West 16.1 mph - N/A   Overcast
5:55 PM 33.3 °F 23.2 °F 27.1 °F 78% 29.95 in 10.0 mi West 15.0 mph - N/A   Overcast
6:15 PM 33.3 °F 24.1 °F 27.5 °F 79% 29.96 in 10.0 mi West 12.7 mph - N/A   Overcast
6:35 PM 33.3 °F 23.7 °F 27.1 °F 78% 29.96 in 10.0 mi West 13.8 mph - N/A   Overcast
6:55 PM 33.3 °F 22.8 °F 27.3 °F 79% 29.97 in 10.0 mi West 16.1 mph - N/A   Overcast
7:15 PM 33.3 °F 23.7 °F 26.8 °F 77% 29.98 in 10.0 mi West 13.8 mph 18.4 mph N/A   Overcast
7:35 PM 33.4 °F 24.3 °F 26.8 °F 77% 29.98 in 10.0 mi West 12.7 mph 19.6 mph N/A   Overcast
7:55 PM 33.4 °F 23.1 °F 26.8 °F 77% 29.98 in 10.0 mi West 16.1 mph 20.7 mph N/A   Overcast
8:15 PM 33.3 °F 23.2 °F 27.5 °F 79% 29.99 in 10.0 mi West 15.0 mph 18.4 mph N/A   Overcast
8:35 PM 33.1 °F 23.4 °F 27.3 °F 79% 29.99 in 10.0 mi West 13.8 mph 19.6 mph N/A   Overcast
8:55 PM 32.9 °F 22.4 °F 26.8 °F 78% 29.99 in 10.0 mi West 16.1 mph 19.6 mph N/A   Overcast
9:15 PM 32.9 °F 23.7 °F 26.6 °F 78% 30.00 in 10.0 mi West 12.7 mph - N/A   Overcast
9:35 PM 32.5 °F 22.3 °F 26.1 °F 77% 30.01 in 10.0 mi WNW 15.0 mph - N/A   Overcast
9:55 PM 32.0 °F 20.5 °F 26.6 °F 80% 30.02 in 10.0 mi WNW 18.4 mph 21.9 mph N/A   Overcast
10:15 PM 32.4 °F 21.7 °F 24.6 °F 73% 30.02 in 10.0 mi WNW 16.1 mph 23.0 mph N/A   Overcast
10:35 PM 32.4 °F 21.7 °F 24.8 °F 74% 30.03 in 10.0 mi WNW 16.1 mph 21.9 mph N/A   Overcast
10:55 PM 32.4 °F 22.5 °F 25.2 °F 75% 30.04 in 10.0 mi West 13.8 mph - N/A   Overcast
11:15 PM 32.2 °F 22.3 °F 25.5 °F 76% 30.04 in 10.0 mi West 13.8 mph 17.3 mph N/A   Overcast
11:35 PM 32.0 °F 23.0 °F 25.5 °F 77% 30.04 in 10.0 mi West 11.5 mph - N/A   Overcast
11:55 PM 32.0 °F 23.0 °F 25.3 °F 76% 30.05 in 10.0 mi West 11.5 mph - N/A   Overcast